GOES 15                 
1 36411U 10008A   19266.49931443  .00000040  00000-0  00000+0 0  9998
2 36411   0.3456 279.4012 0003058 268.4632 226.1038  1.00281077 35014
DELTA 4 R/B             
1 36412U 10008B   19263.85592575 -.00000236  00000-0  00000+0 0  9993
2 36412  12.3648 302.0189 5234527 252.7297  49.0800  1.92899291 67270